User: anonymous
Location: Unspecified
(0.0000°N, 0.0000°E)
Time: 20:33:50
(UTC+02:00)
Language:

Timation 2 Rocket - Orbit

View from above orbital plane
View from above orbital plane
View from above satellite
View from above satellite

Ground track
Ground track

The orbit data is extracted from the following two-line orbital elements,

1 04159U 69082AB  14243.73333200  .00000028  00000-0  81678-4 0  6732
2 04159 069.9618 097.0288 0118076 279.6507 079.1263 13.72243250248071
Epoch (UTC): 31 August 2014 17:35:59
Eccentricity: 0.0118076
inclination: 69.9618°
perigee height: 904 km
apogee height: 1078 km
right ascension of ascending node: 97.0288°
argument of perigee: 279.6507°
revolutions per day: 13.72243250
mean anomaly at epoch: 79.1263°
orbit number at epoch: 24807

The dashed part of the orbit path shows where the satellite is in the earth's shadow,  

DLR